Santiago, Dominican Republic

11:02 PM AST on November 21, 2017 (GMT -0400)
Cibao International

Weather History for MDST - April, 2013

Change the Weather History Date:

Friday, April 5, 2013

  Actual Average Record
Temperature  
Mean Temperature 80 °F -  
Max Temperature 91 °F 88 °F 94 °F (2016)
Min Temperature 68 °F 68 °F 65 °F (2015)
Cooling Degree Days 14    
Growing Degree Days 30 (Base 50)    
Moisture  
Dew Point 70 °F    
Average Humidity 74    
Maximum Humidity 100    
Minimum Humidity 42    
Precipitation  
Precipitation 0.00 in 0.15 in - ()
Sea Level Pressure  
Sea Level Pressure 29.98 in    
Wind  
Wind Speed 12 mph ()    
Max Wind Speed 45 mph    
Max Gust Speed -    
Visibility 6.1 miles    
Events      
Averages and records for this station are not official NWS values.
T = Trace of Precipitation, MM = Missing Value Source: Averaged Metar Reports

Daily Weather History Graph

Daily Weather History Graph

Search for Another Location

Airport or City:

Trip Planner

Search our weather history database for the weather conditions in past years. The results will help you decide how hot, cold, wet, or windy it might be!

Date:

Astronomy

Apr. 05, 2013 Rise Set
Actual Time 6:33 AM AST 6:57 PM AST
Civil Twilight 6:10 AM AST 7:20 PM AST
Nautical Twilight 5:45 AM AST 7:45 PM AST
Astronomical Twilight 5:19 AM AST 8:12 PM AST
Moon 3:00 AM AST (4/5) 2:52 PM AST (4/5)
Length of Visible Light 13h 09m
Length of Day
12h 24m
Waning Crescent, 24% of the Moon is Illuminated
Apr 5
Waning Crescent
Apr 10
New
Apr 18
First Quarter
Apr 25
Full
May 2
Last Quarter

Hourly Weather History & Observations

Time (AST) Temp. Heat Index Dew Point Humidity Pressure Visibility Wind Dir Wind Speed Gust Speed Precip Events Conditions
12:00 AM 71.6 °F - 69.8 °F 94% 30.01 in 6.2 mi East 9.2 mph - N/A   Mostly Cloudy
1:00 AM 73.4 °F - 69.8 °F 88% 30.09 in 6.2 mi ESE 6.9 mph - N/A   Mostly Cloudy
2:00 AM 73.4 °F - 69.8 °F 88% 30.09 in 6.2 mi ESE 6.9 mph - N/A   Mostly Cloudy
3:00 AM 73.4 °F - 69.8 °F 88% 29.98 in 6.2 mi ESE 10.4 mph - N/A   Partly Cloudy
4:00 AM 71.6 °F - 71.6 °F 100% 29.95 in 6.2 mi ESE 11.5 mph - N/A   Partly Cloudy
5:00 AM 71.6 °F - 71.6 °F 100% 29.98 in 6.2 mi ESE 11.5 mph - N/A   Partly Cloudy
6:00 AM 69.8 °F - 69.8 °F 100% 29.98 in 6.2 mi East 8.1 mph - N/A   Partly Cloudy
7:00 AM 69.8 °F - 69.8 °F 100% 30.01 in 6.2 mi East 8.1 mph - N/A   Partly Cloudy
8:00 AM 73 °F - 69 °F 85% 30.03 in 4 mi North 44.7 mph - -   Haze
8:00 AM 73.4 °F - 69.8 °F 88% 30.01 in 6.2 mi ESE 9.2 mph - N/A   Scattered Clouds
9:00 AM 78.8 °F - 71.6 °F 78% 30.01 in 6.2 mi SE 11.5 mph - N/A   Partly Cloudy
10:00 AM 80.6 °F 83.9 °F 69.8 °F 70% 30.04 in 6.2 mi ESE 17.3 mph - N/A   Partly Cloudy
11:00 AM 82 °F - 70 °F 60% 30.03 in 6 mi ESE 17.9 mph - -   Haze
11:00 AM 82.4 °F 86.3 °F 69.8 °F 66% 30.01 in 6.2 mi ESE 18.4 mph - N/A   Scattered Clouds
12:00 PM 86.0 °F 90.4 °F 69.8 °F 58% 30.01 in 6.2 mi ESE 19.6 mph - N/A   Scattered Clouds
1:00 PM 86.0 °F 89.4 °F 68.0 °F 55% 29.98 in 6.2 mi ESE 17.3 mph - N/A   Scattered Clouds
2:00 PM 89 °F - 69 °F 42% 29.94 in 6 mi SE 15.7 mph - -   Haze
2:00 PM 89.6 °F 94.7 °F 69.8 °F 52% 29.92 in 6.2 mi SE 15.0 mph - N/A   Partly Cloudy
3:00 PM 89.6 °F 92.2 °F 66.2 °F 46% 29.95 in 6.2 mi ESE 17.3 mph - N/A   Partly Cloudy
4:00 PM 91.4 °F 94.0 °F 66.2 °F 43% 29.89 in 6.2 mi SE 12.7 mph - N/A   Partly Cloudy
5:00 PM 88 °F - 70 °F 47% 29.89 in 6 mi ESE 17.9 mph - -   Haze
5:00 PM 87.8 °F 92.6 °F 69.8 °F 55% 29.89 in 6.2 mi ESE 18.4 mph - N/A   Partly Cloudy
6:00 PM 86.0 °F 90.4 °F 69.8 °F 58% 29.89 in 6.2 mi ESE 18.4 mph - N/A   Partly Cloudy
7:00 PM 80.6 °F 83.9 °F 69.8 °F 70% 29.92 in 6.2 mi ESE 19.6 mph - N/A   Partly Cloudy
8:00 PM 78.8 °F - 71.6 °F 78% 29.95 in 6.2 mi ESE 16.1 mph - N/A   Partly Cloudy
9:00 PM 77.0 °F - 71.6 °F 83% 29.98 in 6.2 mi East 12.7 mph - N/A   Mostly Cloudy
10:00 PM 75.2 °F - 71.6 °F 89% 29.98 in 6.2 mi East 11.5 mph - N/A   Partly Cloudy
11:00 PM 75.2 °F - 73.4 °F 94% 29.98 in 6.2 mi East 10.4 mph - N/A   Mostly Cloudy